Greenland, AR

11:20 AM CST on February 26, 2017 (GMT -0600)
Drake

Weather History for KFYV - March, 2013

Change the Weather History Date:

Thursday, March 14, 2013

  Actual Average Record
Temperature  
Mean Temperature 49 °F 48 °F  
Max Temperature 70 °F 60 °F 80 °F (1967)
Min Temperature 27 °F 36 °F 13 °F (1993)
Degree Days  
Heating Degree Days 16 17  
Month to date heating degree days 324 271  
Since 1 July heating degree days 3395 3574  
Cooling Degree Days 0 0  
Month to date cooling degree days 0 0  
Year to date cooling degree days 0 0  
Moisture  
Dew Point 32 °F    
Average Humidity 62    
Maximum Humidity 92    
Minimum Humidity 31    
Precipitation  
Precipitation 0.12 in 0.13 in 2.24 in (1953)
Month to date precipitation 1.98 1.69  
Year to date precipitation 7.83 7.34  
Sea Level Pressure  
Sea Level Pressure 30.24 in    
Wind  
Wind Speed 8 mph (SW)    
Max Wind Speed 23 mph    
Max Gust Speed 32 mph    
Visibility 10 miles    
Events      
T = Trace of Precipitation, MM = Missing Value Source: NWS Daily Summary

Daily Weather History Graph

Daily Weather History Graph

Search for Another Location

Airport or City:

Trip Planner

Search our weather history database for the weather conditions in past years. The results will help you decide how hot, cold, wet, or windy it might be!

Date:

Astronomy

Mar. 14, 2013 Rise Set
Actual Time 7:28 AM CDT 7:23 PM CDT
Civil Twilight 7:02 AM CDT 7:49 PM CDT
Nautical Twilight 6:33 AM CDT 8:18 PM CDT
Astronomical Twilight 6:03 AM CDT 8:48 PM CDT
Moon 8:49 AM CDT (3/14) 10:33 PM CDT (3/14)
Length of Visible Light 12h 46m
Length of Day
11h 55m
Waxing Crescent, 9% of the Moon is Illuminated
Mar 14
Waxing Crescent
Mar 19
First Quarter
Mar 27
Full
Apr 2
Last Quarter
Apr 10
New

Hourly Weather History & Observations

Time (CDT) Temp. Dew Point Humidity Pressure Visibility Wind Dir Wind Speed Gust Speed Precip Events Conditions
12:53 AM 32.0 °F 26.1 °F 79% 30.38 in 10.0 mi Calm Calm - N/A   Clear
1:53 AM 28.9 °F 26.1 °F 89% 30.36 in 10.0 mi Calm Calm - N/A   Clear
2:53 AM 30.9 °F 25.0 °F 79% 30.34 in 10.0 mi Calm Calm - N/A   Clear
3:53 AM 28.0 °F 25.0 °F 88% 30.33 in 10.0 mi Calm Calm - N/A   Clear
4:53 AM 28.9 °F 25.0 °F 85% 30.30 in 10.0 mi Calm Calm - N/A   Clear
5:53 AM 30.0 °F 25.0 °F 82% 30.31 in 10.0 mi Calm Calm - N/A   Clear
6:53 AM 28.9 °F 25.0 °F 85% 30.32 in 10.0 mi Calm Calm - N/A   Clear
7:53 AM 30.9 °F 25.0 °F 79% 30.33 in 10.0 mi Calm Calm - N/A   Clear
8:53 AM 46.9 °F 27.0 °F 46% 30.32 in 10.0 mi SSW 12.7 mph - N/A   Clear
9:53 AM 55.0 °F 27.0 °F 34% 30.29 in 10.0 mi SSW 19.6 mph 32.2 mph N/A   Clear
10:53 AM 59.0 °F 28.0 °F 31% 30.29 in 10.0 mi SSW 19.6 mph 25.3 mph 0.12 in   Clear
11:48 AM 60.8 °F 28.4 °F 29% 30.27 in 10.0 mi SW 19.6 mph 28.8 mph N/A   Clear
11:53 AM 60.8 °F 30.2 °F 31% 30.27 in 10.0 mi SW 18.4 mph 27.6 mph N/A   Clear
12:53 PM 61.0 °F 32.0 °F 34% 30.26 in 10.0 mi SW 17.3 mph 23.0 mph N/A   Clear
1:53 PM 64.0 °F 34.0 °F 33% 30.22 in 10.0 mi SSW 15.0 mph 23.0 mph N/A   Clear
2:53 PM 66.0 °F 35.1 °F 32% 30.18 in 10.0 mi SW 18.4 mph 26.5 mph N/A   Clear
3:53 PM 70.0 °F 37.9 °F 31% 30.17 in 10.0 mi SSW 12.7 mph - N/A   Clear
4:53 PM 69.1 °F 37.9 °F 32% 30.16 in 10.0 mi SSW 15.0 mph - N/A   Clear
5:53 PM 68.0 °F 39.0 °F 35% 30.15 in 10.0 mi SSW 11.5 mph - N/A   Clear
6:53 PM 66.0 °F 39.0 °F 37% 30.14 in 10.0 mi SW 12.7 mph - N/A   Clear
7:53 PM 61.0 °F 39.0 °F 44% 30.15 in 10.0 mi SW 4.6 mph - N/A   Clear
8:53 PM 55.0 °F 39.0 °F 55% 30.13 in 10.0 mi SW 3.5 mph - N/A   Clear
9:53 PM 55.9 °F 39.9 °F 55% 30.14 in 10.0 mi Calm Calm - N/A   Clear
10:53 PM 52.0 °F 39.9 °F 63% 30.14 in 10.0 mi SW 4.6 mph - N/A   Clear
11:53 PM 55.9 °F 41.0 °F 57% 30.13 in 10.0 mi SW 4.6 mph - N/A   Clear